Preview of NWS' New Version of Forecast
This preview is not operational and should not be used for support decisions.

Regional Weather Roundup (RWR)

Issued by Gray - Portland, ME (GYX)

                            
000
ASUS41 KGYX 171606
RWRGYX
WEATHER ROUNDUP FOR MAINE AND NEW HAMPSHIRE
NATIONAL WEATHER SERVICE GRAY ME
1200 PM EDT SAT AUG 17 2019

MEZ002-005-006-010-012-015-018-020-021-024-026-027-029-171700-
MAINE
  
CITY           SKY/WX    TMP DP  RH WIND       PRES   REMARKS
PORTLAND       CLOUDY    69  63  81 S7        30.09S                  
SANFORD        CLOUDY    67  66  97 VRB5      30.09S FOG              
BAR HARBOR     CLOUDY    63  62  97 SE3       30.12F                  
WISCASSET      CLOUDY    69  61  75 VRB5      30.11S                  
ROCKLAND       CLOUDY    64  62  93 E7        30.11S                  
FRYEBURG       CLOUDY    69  63  81 SE5       30.08F                  
LEWISTONAUBURN CLOUDY    68  64  87 SE5       30.09S                  
AUGUSTA        CLOUDY    68  63  84 SE7       30.10S                  
WATERVILLE     CLOUDY    67  62  84 VRB3      30.07F                  
BANGOR         CLOUDY    68  61  78 S8        30.10F                  
GREENVILLE       N/A     59  59 100 SE9       30.08S                  
MILLINOCKET    LGT RAIN  62  61  96 VRB5      30.11S FOG              
HOULTON        CLOUDY    63  61  93 S6        30.09S                  
PRESQUE ISLE   PTSUNNY   65  61  87 S9        30.07F                  
FRENCHVILLE    CLOUDY    65  59  81 S7        30.05F                  
CARIBOU        LGT RAIN  64  60  87 S7        30.06F                  
$$

NHZ002-005-008-009-011-012-014-171700-
NEW HAMPSHIRE
  
CITY           SKY/WX    TMP DP  RH WIND       PRES   REMARKS
PORTSMOUTH     CLOUDY    69  65  88 S9        30.07R                  
ROCHESTER      CLOUDY    69  65  86 SE5       30.08R                  
NASHUA         CLOUDY    75  70  84 VRB5      30.07S                  
MANCHESTER     CLOUDY    74  67  78 S7        30.04S                  
CONCORD        CLOUDY    72  65  78 SE6       30.06S                  
LACONIA        CLOUDY    68  67  96 NE3       30.07F                  
PLYMOUTH       CLOUDY    68  64  87 E5        30.06F                  
BERLIN         CLOUDY    73  63  70 S3        30.05F                  
WHITEFIELD     CLOUDY    75  65  70 CALM      30.05F                  
JAFFREY        CLOUDY    76  65  68 VRB6      30.08S                  
KEENE          CLOUDY    77  68  73 VRB3      30.05F                  
LEBANON        PTSUNNY   79  65  62 SW7       30.03F                  
MT WASHINGTON  FOG       54  54 100 W24G36      N/A  VSB 0            
$$

VTZ005-007-008-171700-
VERMONT
  
CITY           SKY/WX    TMP DP  RH WIND       PRES   REMARKS
ST JOHNSBURY     N/A     74  66  76 MISG      30.02F                  
MONTPELIER     FAIR      76  68  76 S10       30.06F                  
BURLINGTON     PTSUNNY   82  66  58 S14       29.97F                  
$$

MAZ007-012-024-CTZ003-RIZ002-NYZ038-NYZ072-171700-
SOUTHERN NEW ENGLAND AND NY
  
CITY           SKY/WX    TMP DP  RH WIND       PRES   REMARKS
BOSTON         CLOUDY    71  65  81 E14       30.07S                  
WORCESTER      CLOUDY    72  67  84 S7        30.09S                  
NANTUCKET      CLOUDY    72  69  90 E10       30.07F                  
PROVIDENCE     PTSUNNY   75  70  84 S5        30.07S                  
HARTFORD       CLOUDY    77  69  76 CALM      30.04F                  
ALBANY         PTSUNNY   82  70  66 SE10G17   30.01F                  
NEW YORK CITY  PTSUNNY   79  70  74 NE10      30.03S                  
$$

ANZ081-ANZ082-ANZ150-NHZ014-MEZ023>029-171700-
COASTAL MARINE OBSERVATIONS
  
STATION/POSITION TIME  TEMP    WIND        PRES    WAVE
                       AIR SEA DIR/SP/G            HT/PER
                 (UTC) (F)     (DEG/KT/KT) (MB)    (FT/S)
MATINICUS ROCK   1550   60                 1019.1F
ISLE OF SHOALS   1500   65     140/ 12/ 12 1018.0R
JEFFREYS LEDGE   1538      67                N/A     2/ 7
CASHES LEDGE BUO 1550   64 64  120/  8/  8 1019.5R   2/ 8
GEORGES BANK BUO 1550   70 70   60/  4/  6 1019.9F   4/ 8
$$

.............KEY..............
   WCI - WIND CHILL
   TC  - TEMPERATURE IN CELSIUS
   VSB - VISIBILITY IN MILES
   HX  - HEAT INDEX
   FAIR- INDICATES FEW OR NO CLOUDS BELOW 12,000 FT, WITH NO 
         SIGNIFICANT WEATHER AND/OR OBSTRUCTIONS TO VISIBILITY.